Tracking 19792 objects as of 16-Jul-2019
HD Live streaming from Space Station
objects crossing your sky now

COSMOS 1818 COOLANT

Track COSMOS 1818 COOLANT now!
10-day predictions


NORAD ID: 36935
Int'l Code: 1987-011P
Perigee: 768.9 km
Apogee: 801.4 km
Inclination: 65.0 °
Period: 100.4 minutes
Semi major axis: 7156 km
RCS: 0.0035 m2 (small)
Launch date: February 1, 1987
Source: Commonwealth of Independent States (former USSR) (CIS)
Launch site: TYURATAM MISSILE AND SPACE COMPLEX (TTMTR)

Note: This is SATELLITE DEBRIS
aabbcc
Your satellite tracking list
Your tracking list is empty




NASA's NSSDC Master Catalog

Two Line Element Set (TLE):
1 36935U 87011P   19080.57785648 +.00000019 +00000-0 +42681-4 0  9996
2 36935 065.0087 068.7641 0022680 267.1332 092.7158 14.34107990520443
Source of the keplerian elements: AFSPC